TimeEST,TemperatureF,Dew PointF,Humidity,Sea Level PressureIn,VisibilityMPH,Wind Direction,Wind SpeedMPH,Gust SpeedMPH,PrecipitationIn,Events,Conditions,WindDirDegrees,DateUTC
12:35 AM,29.8,20.5,68,30.13,10.0,Calm,Calm,-,N/A,,Overcast,0,2012-12-28 05:35:00
12:54 AM,30.0,20.1,67,30.12,10.0,Calm,Calm,-,N/A,,Overcast,0,2012-12-28 05:54:00
1:15 AM,29.7,21.6,72,30.12,10.0,Calm,Calm,-,N/A,,Overcast,0,2012-12-28 06:15:00
1:34 AM,29.7,22.1,73,30.12,10.0,Calm,Calm,-,N/A,,Overcast,0,2012-12-28 06:34:00
1:55 AM,29.5,22.1,74,30.12,10.0,Calm,Calm,-,N/A,,Overcast,0,2012-12-28 06:55:00
2:15 AM,29.3,22.6,76,30.12,10.0,Calm,Calm,-,N/A,,Overcast,0,2012-12-28 07:15:00
2:34 AM,29.3,23.0,77,30.12,10.0,Calm,Calm,-,N/A,,Overcast,0,2012-12-28 07:34:00
2:55 AM,29.3,23.0,77,30.12,10.0,Calm,Calm,-,N/A,,Overcast,0,2012-12-28 07:55:00
3:15 AM,29.3,23.2,78,30.12,10.0,Calm,Calm,-,N/A,,Overcast,0,2012-12-28 08:15:00
3:34 AM,29.3,23.4,78,30.12,10.0,Calm,Calm,-,N/A,,Overcast,0,2012-12-28 08:34:00
3:55 AM,29.1,23.4,79,30.12,10.0,East,3.5,-,N/A,,Overcast,100,2012-12-28 08:55:00
4:14 AM,29.1,23.5,80,30.11,10.0,East,4.6,-,N/A,,Overcast,80,2012-12-28 09:14:00
4:35 AM,28.9,23.4,80,30.11,10.0,ENE,4.6,-,N/A,,Overcast,70,2012-12-28 09:35:00
4:55 AM,28.6,23.0,80,30.10,10.0,ENE,4.6,-,N/A,,Overcast,70,2012-12-28 09:55:00
5:14 AM,28.4,23.0,80,30.10,10.0,East,3.5,-,N/A,,Overcast,80,2012-12-28 10:14:00
5:35 AM,28.2,23.0,81,30.10,10.0,East,5.8,-,N/A,,Overcast,90,2012-12-28 10:35:00
5:54 AM,28.2,23.0,81,30.09,10.0,East,5.8,-,N/A,,Overcast,90,2012-12-28 10:54:00
6:15 AM,28.0,23.0,81,30.09,10.0,East,5.8,-,N/A,,Overcast,80,2012-12-28 11:15:00
6:35 AM,27.9,23.0,82,30.09,10.0,East,4.6,-,N/A,,Overcast,90,2012-12-28 11:35:00
6:54 AM,27.7,23.0,83,30.09,10.0,ESE,4.6,-,N/A,,Overcast,120,2012-12-28 11:54:00
7:15 AM,27.9,23.5,84,30.10,10.0,ESE,3.5,-,N/A,,Overcast,110,2012-12-28 12:15:00
7:34 AM,27.9,23.5,84,30.09,10.0,ESE,4.6,-,N/A,,Overcast,110,2012-12-28 12:34:00
7:55 AM,27.9,23.7,84,30.09,10.0,East,4.6,-,N/A,,Overcast,90,2012-12-28 12:55:00
8:15 AM,27.9,23.9,85,30.10,10.0,ESE,4.6,-,N/A,,Overcast,120,2012-12-28 13:15:00
8:34 AM,28.0,23.9,84,30.10,7.0,ESE,4.6,-,N/A,,Overcast,120,2012-12-28 13:34:00
8:55 AM,28.2,24.1,84,30.11,7.0,Calm,Calm,-,N/A,,Overcast,0,2012-12-28 13:55:00
9:14 AM,28.4,24.4,85,30.11,10.0,Calm,Calm,-,N/A,,Overcast,0,2012-12-28 14:14:00
9:35 AM,28.4,24.6,86,30.11,7.0,SE,3.5,-,N/A,,Overcast,140,2012-12-28 14:35:00
9:55 AM,28.9,25.5,87,30.12,2.5,SE,5.8,-,N/A,Snow,Light Snow,130,2012-12-28 14:55:00
10:14 AM,28.9,26.1,89,30.12,2.5,SE,4.6,-,N/A,Snow,Light Snow,130,2012-12-28 15:14:00
10:35 AM,29.1,26.8,91,30.13,1.2,SE,4.6,-,N/A,Snow,Light Snow,140,2012-12-28 15:35:00
10:54 AM,29.3,27.3,92,30.13,1.0,SE,4.6,-,N/A,Snow,Light Snow,140,2012-12-28 15:54:00
11:15 AM,29.3,27.5,93,30.12,0.8,SE,4.6,-,N/A,Snow,Light Snow,140,2012-12-28 16:15:00
11:35 AM,29.7,28.0,94,30.10,0.5,ESE,5.8,-,N/A,Snow,Light Snow,120,2012-12-28 16:35:00
11:54 AM,30.0,27.9,92,30.09,1.2,ESE,6.9,-,N/A,Snow,Light Snow,120,2012-12-28 16:54:00
12:15 PM,30.2,27.9,91,30.07,1.5,ESE,6.9,-,N/A,Snow,Light Snow,110,2012-12-28 17:15:00
12:34 PM,30.4,28.2,92,30.06,1.0,SE,4.6,-,N/A,Snow,Light Snow,130,2012-12-28 17:34:00
12:55 PM,30.7,28.4,91,30.04,1.5,SE,4.6,-,N/A,Snow,Light Snow,130,2012-12-28 17:55:00
1:15 PM,30.9,28.4,90,30.03,1.5,ESE,4.6,-,N/A,Snow,Light Snow,120,2012-12-28 18:15:00
1:35 PM,31.1,28.2,89,30.02,1.5,SE,4.6,-,N/A,Snow,Light Snow,140,2012-12-28 18:35:00
1:55 PM,31.1,28.2,89,30.01,2.0,Calm,Calm,-,N/A,Snow,Light Snow,0,2012-12-28 18:55:00
2:14 PM,31.1,28.2,89,30.00,3.0,SE,5.8,-,N/A,Snow,Light Snow,140,2012-12-28 19:14:00
2:35 PM,31.1,28.0,88,29.99,5.0,SSE,5.8,-,N/A,Snow,Light Snow,150,2012-12-28 19:35:00
2:55 PM,31.1,28.2,89,29.99,4.0,SE,4.6,-,N/A,Snow,Light Snow,140,2012-12-28 19:55:00
3:14 PM,31.5,28.2,88,29.99,3.0,ESE,6.9,-,N/A,Snow,Light Snow,120,2012-12-28 20:14:00
3:35 PM,31.5,27.9,87,29.98,7.0,ESE,6.9,-,N/A,Snow,Light Snow,120,2012-12-28 20:35:00
3:55 PM,31.1,27.5,87,29.98,10.0,SE,3.5,-,N/A,,Overcast,140,2012-12-28 20:55:00
4:14 PM,31.1,27.0,85,29.98,10.0,SE,3.5,-,N/A,,Overcast,140,2012-12-28 21:14:00
4:35 PM,31.1,27.1,85,29.98,10.0,SE,4.6,-,N/A,,Overcast,140,2012-12-28 21:35:00
4:54 PM,31.1,27.1,85,29.97,10.0,Calm,Calm,-,N/A,,Overcast,0,2012-12-28 21:54:00
5:15 PM,31.1,26.6,83,29.98,10.0,SE,3.5,-,N/A,,Overcast,130,2012-12-28 22:15:00
5:35 PM,30.9,26.6,84,29.98,10.0,Calm,Calm,-,N/A,,Overcast,0,2012-12-28 22:35:00
5:54 PM,30.9,26.6,84,29.97,10.0,ESE,3.5,-,N/A,,Overcast,110,2012-12-28 22:54:00
6:15 PM,30.7,26.8,85,29.97,10.0,ESE,3.5,-,N/A,,Overcast,120,2012-12-28 23:15:00
6:55 PM,30.6,27.0,86,29.97,7.0,ESE,4.6,-,N/A,,Overcast,120,2012-12-28 23:55:00
7:15 PM,30.4,26.6,86,29.97,7.0,Calm,Calm,-,N/A,,Overcast,0,2012-12-29 00:15:00
7:34 PM,30.4,26.6,86,29.98,7.0,Calm,Calm,-,N/A,,Overcast,0,2012-12-29 00:34:00
7:55 PM,30.2,26.6,86,29.97,7.0,Calm,Calm,-,N/A,,Overcast,0,2012-12-29 00:55:00
8:14 PM,30.2,27.0,88,29.97,7.0,Calm,Calm,-,N/A,,Overcast,0,2012-12-29 01:14:00
8:35 PM,30.2,27.0,88,29.96,7.0,Calm,Calm,-,N/A,,Overcast,0,2012-12-29 01:35:00
8:55 PM,30.0,27.0,88,29.96,7.0,Calm,Calm,-,N/A,,Overcast,0,2012-12-29 01:55:00
9:14 PM,30.2,27.0,88,29.95,7.0,Calm,Calm,-,N/A,,Overcast,0,2012-12-29 02:14:00
9:35 PM,30.0,26.6,87,29.94,7.0,Calm,Calm,-,N/A,,Overcast,0,2012-12-29 02:35:00
9:55 PM,29.8,27.0,89,29.92,5.0,ESE,4.6,-,N/A,,Overcast,110,2012-12-29 02:55:00
10:15 PM,29.8,27.1,90,29.92,5.0,East,4.6,-,N/A,,Overcast,90,2012-12-29 03:15:00
10:35 PM,29.7,26.6,88,29.92,5.0,ESE,5.8,-,N/A,,Overcast,110,2012-12-29 03:35:00
10:54 PM,29.3,27.1,92,29.91,4.0,East,3.5,-,N/A,,Overcast,100,2012-12-29 03:54:00
11:15 PM,29.3,27.3,92,29.91,4.0,Calm,Calm,-,N/A,,Overcast,0,2012-12-29 04:15:00
11:35 PM,29.3,27.1,92,29.91,4.0,East,4.6,-,N/A,,Overcast,90,2012-12-29 04:35:00
11:54 PM,29.3,27.3,92,29.90,4.0,East,4.6,-,N/A,,Overcast,100,2012-12-29 04:54:00